Zurück zum Katalog

CZ-6A DEB

AktivSSO
NORAD 56281·DEBRIS·🇨🇳 China

Gestartet Nov 11, 2022 von Taiyuan Satellite Launch Center

Loading…

Nächste Überflüge (nächste 24 Stunden)

TLE

AktuellSource: Space-Track

Epoche: Sep 13, 2026, 23:22 UTC

1 56281U 22151ACZ 26256.97415422  .00001350  00000-0  71057-3 0  9990
2 56281  98.8339 253.8628 0058238  80.0674 280.7066 14.14837152179551

Verfolge CZ-6A DEB in Echtzeit mit AllMySat

Download on the App Store